DECAYED

STARLINK-31043, 58591 (Decayed)

Orbit data source: Space-Track

STARLINK-31043, 58591 was a payload satellite owned by SpaceX/Seattle (US) in LEO that was launched on Tue, 19 Dec 2023 UTC via an FALCON 9 launch vehicle from the Air Force Eastern Test Range (AFETR). Payload-class satellites include a variety of spacecraft equipped with specific instruments for various scientific and technological missions. These include communications satellites like Starlink; space stations such as the ISS; scientific satellites like the Hubble; Earth observation satellites from companies like Planet Labs, Umbra, and HawkEye 360; GPS; miniature CubeSats for education and research; and military/defense satellites.

Not visible in the next 10 days
Identifier
58591, 2023-200C
Orbit
Decayed
Country
Flag of USUS
Related business
Manufacturer
SpaceX/Seattle
Mission
Decayed Commercial Communications
Bus & Motor
STARLINK V2M, Unknown motor
Mass
730 kg wet, ~700 kg dry
Launch date (UTC)
2023-12-19 (3 years ago)
Launch vehicle
FALCON 9
Launch site
Air Force Eastern Test Range (AFETR)
Object type
Payload
Rocket body
Debris
Shape & HBR
Box + 2 Pan, 17.7 m
Radar Cross Section
33.884 m², Large (>1 m²)

Expand to show TLE details & history
Last TLE update: 1 year ago

TLE from 1 year ago
0 STARLINK-31043
1 58591U 23200C   25128.12161287  .14899963  89621-5  53218-2 0  9992
2 58591  42.9948  18.6216 0008343 260.0948 224.5115 16.23898446 77798
Epoch: 2025-05-08T02:55Z
TLE epoch observation values (Epoch: 2025-05-08T02:55:07.351Z)
Latitude
34.31102°
Longitude
-118.05532°
Altitude
214.184 km
Speed
7.781 km/s
True Right ascension
10h 07m 41s
True Declination
34° 08' 16"
Sunlit
Object was in daylight at epoch
Visualization orbit readout
Latitude
Unknown
Longitude
Unknown
Altitude
Unknown
Speed
Unknown
Apparent Right ascension
Unknown
Apparent Declination
Unknown
Sunlit
N/A
Visualization observer readout
Local Sidereal Time
21:24:54
Azimuth
Unknown
Elevation
Unknown
Doppler factor
Unknown
Orbital elements
Apogee altitude
216.512 km
Perigee altitude
205.518 km
Semi-major axis
6,589.152 km
Eccentricity
0.00083
Inclination
42.9948°
RAAN
18.6216°
Arg. of periapsis
260.0948°
True anomaly
224.44453°
Mean anomaly
224.5115°
Eccentric anomaly
224.47801°
Mean motion
4.05788 °/min
Orbital period
88.72 mins
BSTAR
0.0053218
Loading maneuver chart data...
Computing Atmospheric mass density...
Loading historical data...
Loading historical data...
Loading historical data...
Loading historical data...
Loading historical data...
Loading historical data...
Loading historical data...

Documentation

Showing up to 5 results
|